NOS108 LIME-EDDM

Flight info

Callsign NOS108
Flight time 0h 41m
Altitude 18000
Route LEGLO L615 OSKOR M985 TAGIP/N0419F240 DCT SOTOV T101 BETOS BETOS1B
Aircraft B738/M-SDE2E3FGHIRWXY/LB1

Departure

Time 2026-05-05 16:13
Airport Il Caravaggio International Airport (LIME)

Arrival

Time 2026-05-05 16:55
Airport Munich Airport (EDDM)
Time Latitude Longitude Altitude Speed Heading
2026-05-05 15:29 45.66684 9.69805 777 ft 0 kts 195°
2026-05-05 16:02 45.66695 9.69810 778 ft 2 kts 201°
2026-05-05 16:03 45.66709 9.69815 778 ft 2 kts 193°
2026-05-05 16:03 45.66723 9.69821 778 ft 2 kts 195°
2026-05-05 16:03 45.66737 9.69826 778 ft 2 kts 194°
2026-05-05 16:03 45.66748 9.69830 779 ft 0 kts 195°
2026-05-05 16:04 45.66762 9.69832 779 ft 2 kts 162°
2026-05-05 16:04 45.66775 9.69821 779 ft 2 kts 130°
2026-05-05 16:04 45.66780 9.69808 779 ft 0 kts 108°
2026-05-05 16:04 45.66782 9.69798 779 ft 0 kts 104°
2026-05-05 16:05 45.66782 9.69797 779 ft 0 kts 104°
2026-05-05 16:07 45.66780 9.69807 779 ft 3 kts 104°
2026-05-05 16:07 45.66771 9.69857 779 ft 7 kts 104°
2026-05-05 16:07 45.66755 9.69946 779 ft 10 kts 105°
2026-05-05 16:08 45.66732 9.70069 778 ft 14 kts 105°
2026-05-05 16:08 45.66703 9.70225 778 ft 17 kts 106°
2026-05-05 16:08 45.66668 9.70407 778 ft 20 kts 105°
2026-05-05 16:08 45.66631 9.70611 778 ft 22 kts 105°
2026-05-05 16:09 45.66586 9.70846 775 ft 26 kts 104°
2026-05-05 16:09 45.66537 9.71105 772 ft 26 kts 111°
2026-05-05 16:09 45.66476 9.71364 766 ft 29 kts 105°
2026-05-05 16:09 45.66444 9.71657 763 ft 30 kts 75°
2026-05-05 16:10 45.66460 9.71939 758 ft 30 kts 108°
2026-05-05 16:10 45.66405 9.72235 756 ft 31 kts 104°
2026-05-05 16:10 45.66375 9.72405 754 ft 1 kts 103°
2026-05-05 16:10 45.66373 9.72417 754 ft 0 kts 103°
2026-05-05 16:12 45.66372 9.72422 754 ft 3 kts 102°
2026-05-05 16:12 45.66422 9.72551 753 ft 11 kts 327°
2026-05-05 16:13 45.66996 9.69582 1380 ft 168 kts 285°
2026-05-05 16:13 45.67062 9.67922 2107 ft 180 kts 260°
2026-05-05 16:13 45.66748 9.66594 2652 ft 184 kts 244°
2026-05-05 16:14 45.65054 9.63722 3904 ft 192 kts 225°
2026-05-05 16:14 45.63134 9.60996 5214 ft 198 kts 226°
2026-05-05 16:15 45.61202 9.58250 6575 ft 204 kts 226°
2026-05-05 16:15 45.59082 9.55238 7699 ft 222 kts 223°
2026-05-05 16:16 45.55975 9.54439 8399 ft 257 kts 153°
2026-05-05 16:16 45.54278 9.58618 9432 ft 276 kts 84°
2026-05-05 16:17 45.56401 9.63021 10491 ft 302 kts 32°
2026-05-05 16:17 45.58172 9.64729 10957 ft 320 kts 38°
2026-05-05 16:18 45.61344 9.69808 11388 ft 368 kts 53°
2026-05-05 16:18 45.62861 9.72778 11733 ft 383 kts 55°
2026-05-05 16:18 45.64982 9.79773 12890 ft 399 kts 86°
2026-05-05 16:19 45.64991 9.83679 13827 ft 396 kts 91°
2026-05-05 16:19 45.64970 9.87658 14153 ft 410 kts 90°
2026-05-05 16:19 45.64968 9.95776 15324 ft 420 kts 90°
2026-05-05 16:20 45.64945 10.04021 16396 ft 431 kts 90°
2026-05-05 16:20 45.65752 10.12401 17525 ft 436 kts 68°
2026-05-05 16:21 45.68905 10.19676 18545 ft 440 kts 52°
2026-05-05 16:22 45.74285 10.30392 20099 ft 448 kts 52°
2026-05-05 16:22 45.77942 10.37733 20990 ft 456 kts 51°
2026-05-05 16:23 45.81625 10.45149 21797 ft 463 kts 51°
2026-05-05 16:23 45.83485 10.48906 22319 ft 464 kts 51°
2026-05-05 16:23 45.87244 10.56513 23062 ft 471 kts 51°
2026-05-05 16:24 45.89142 10.60354 23433 ft 474 kts 50°
2026-05-05 16:24 45.91202 10.64056 23790 ft 474 kts 44°
2026-05-05 16:24 45.96228 10.69878 24563 ft 464 kts 23°
2026-05-05 16:25 45.99162 10.71771 25037 ft 459 kts 17°
2026-05-05 16:25 46.05146 10.74872 25901 ft 458 kts 15°
2026-05-05 16:25 46.08143 10.76422 26330 ft 457 kts 15°
2026-05-05 16:26 46.13998 10.79443 27242 ft 454 kts 14°
2026-05-05 16:26 46.19828 10.82444 28165 ft 450 kts 14°
2026-05-05 16:27 46.22762 10.83954 28641 ft 448 kts 14°
2026-05-05 16:27 46.25700 10.85467 29132 ft 445 kts 13°
2026-05-05 16:27 46.28591 10.86960 29624 ft 442 kts 13°
2026-05-05 16:27 46.31449 10.88435 29956 ft 439 kts 13°
2026-05-05 16:28 46.37197 10.91397 29971 ft 443 kts 13°
2026-05-05 16:28 46.43068 10.94422 29969 ft 452 kts 13°
2026-05-05 16:29 46.48997 10.97492 29964 ft 452 kts 13°
2026-05-05 16:29 46.54883 11.00547 29966 ft 450 kts 13°
2026-05-05 16:30 46.60722 11.03581 29966 ft 448 kts 13°
2026-05-05 16:30 46.66577 11.06630 29965 ft 447 kts 13°
2026-05-05 16:31 46.72402 11.09666 29966 ft 447 kts 13°
2026-05-05 16:31 46.78266 11.12725 29932 ft 448 kts 13°
2026-05-05 16:32 46.84124 11.15788 29882 ft 449 kts 13°
2026-05-05 16:32 46.90030 11.18869 29834 ft 448 kts 11°
2026-05-05 16:33 46.95908 11.20697 29832 ft 438 kts 360°
2026-05-05 16:33 47.01960 11.21407 29832 ft 436 kts 356°
2026-05-05 16:34 47.08007 11.21962 29830 ft 437 kts 355°
2026-05-05 16:34 47.13771 11.22433 29830 ft 436 kts 355°
2026-05-05 16:35 47.19906 11.22894 29830 ft 436 kts 354°
2026-05-05 16:35 47.25915 11.23324 29831 ft 436 kts 354°
2026-05-05 16:36 47.31977 11.23748 29831 ft 436 kts 354°
2026-05-05 16:36 47.38012 11.24167 29830 ft 435 kts 354°
2026-05-05 16:37 47.40992 11.24381 29820 ft 422 kts 354°
2026-05-05 16:37 47.43875 11.24594 29704 ft 406 kts 354°
2026-05-05 16:37 47.46668 11.24789 28963 ft 405 kts 354°
2026-05-05 16:37 47.49439 11.24968 28172 ft 412 kts 354°
2026-05-05 16:38 47.52327 11.25145 27313 ft 422 kts 354°
2026-05-05 16:38 47.55265 11.25318 26416 ft 427 kts 353°
2026-05-05 16:38 47.58221 11.25345 25487 ft 428 kts 351°
2026-05-05 16:38 47.61138 11.25281 24528 ft 437 kts 352°
2026-05-05 16:39 47.64166 11.25226 23460 ft 447 kts 352°
2026-05-05 16:39 47.67236 11.25197 22351 ft 449 kts 353°
2026-05-05 16:39 47.70329 11.25283 21268 ft 452 kts 356°
2026-05-05 16:39 47.73413 11.25773 20562 ft 449 kts
2026-05-05 16:40 47.76426 11.26898 19769 ft 451 kts 12°
2026-05-05 16:40 47.79394 11.28432 18945 ft 456 kts 15°
2026-05-05 16:40 47.82285 11.29997 18111 ft 438 kts 15°
2026-05-05 16:40 47.85160 11.31474 17281 ft 440 kts 11°
2026-05-05 16:41 47.88128 11.32555 16428 ft 445 kts
2026-05-05 16:41 47.91084 11.33319 15607 ft 436 kts
2026-05-05 16:41 47.94056 11.33701 14816 ft 429 kts 360°
2026-05-05 16:41 47.96957 11.33991 14069 ft 422 kts
2026-05-05 16:42 47.99826 11.34280 13581 ft 409 kts
2026-05-05 16:42 48.02540 11.34661 13282 ft 386 kts
2026-05-05 16:42 48.04974 11.36033 12991 ft 373 kts 30°
2026-05-05 16:42 48.06914 11.38454 12830 ft 360 kts 47°
2026-05-05 16:43 48.08360 11.41473 12860 ft 368 kts 63°
2026-05-05 16:43 48.09322 11.44974 12834 ft 367 kts 72°
2026-05-05 16:43 48.10109 11.48435 12826 ft 365 kts 72°
2026-05-05 16:43 48.10934 11.51961 12779 ft 360 kts 71°
2026-05-05 16:44 48.11763 11.55444 12344 ft 355 kts 71°
2026-05-05 16:44 48.12591 11.58909 11812 ft 353 kts 71°
2026-05-05 16:44 48.13419 11.62375 11253 ft 352 kts 70°
2026-05-05 16:44 48.14240 11.65780 10703 ft 350 kts 72°
2026-05-05 16:45 48.15100 11.69134 10294 ft 336 kts 72°
2026-05-05 16:45 48.15874 11.72262 10138 ft 312 kts 73°
2026-05-05 16:45 48.16562 11.75237 10012 ft 291 kts 74°
2026-05-05 16:45 48.17210 11.78072 9753 ft 291 kts 73°
2026-05-05 16:46 48.17936 11.80926 9367 ft 289 kts 64°
2026-05-05 16:46 48.19164 11.83270 9022 ft 288 kts 44°
2026-05-05 16:46 48.20666 11.85228 8650 ft 287 kts 41°
2026-05-05 16:46 48.22163 11.87179 8286 ft 277 kts 43°
2026-05-05 16:47 48.23566 11.89022 7921 ft 260 kts 43°
2026-05-05 16:47 48.24884 11.90790 7603 ft 258 kts 44°
2026-05-05 16:47 48.26234 11.92610 7263 ft 261 kts 44°
2026-05-05 16:47 48.27585 11.94431 6922 ft 258 kts 43°
2026-05-05 16:48 48.28911 11.96196 6593 ft 255 kts 44°
2026-05-05 16:48 48.30220 11.97927 6310 ft 250 kts 44°
2026-05-05 16:48 48.31520 11.99637 6021 ft 245 kts 44°
2026-05-05 16:48 48.32764 12.01308 5868 ft 233 kts 44°
2026-05-05 16:49 48.33899 12.02889 5691 ft 209 kts 44°
2026-05-05 16:49 48.34922 12.04284 5505 ft 193 kts 44°
2026-05-05 16:49 48.35908 12.05557 5299 ft 187 kts 44°
2026-05-05 16:49 48.36903 12.06914 5111 ft 192 kts 44°
2026-05-05 16:50 48.38036 12.07891 4872 ft 189 kts 11°
2026-05-05 16:50 48.39265 12.07476 4790 ft 188 kts 318°
2026-05-05 16:50 48.39899 12.05792 4628 ft 190 kts 272°
2026-05-05 16:50 48.39637 12.03943 4245 ft 179 kts 244°
2026-05-05 16:51 48.39169 12.02233 3775 ft 172 kts 246°
2026-05-05 16:51 48.38745 12.00637 3719 ft 167 kts 246°
2026-05-05 16:51 48.38338 11.98932 3451 ft 172 kts 250°
2026-05-05 16:51 48.38028 11.97213 3225 ft 173 kts 255°
2026-05-05 16:52 48.37769 11.95435 2988 ft 167 kts 256°
2026-05-05 16:52 48.37590 11.93815 2767 ft 150 kts 260°
2026-05-05 16:52 48.37459 11.92273 2590 ft 146 kts 261°
2026-05-05 16:52 48.37337 11.90727 2415 ft 149 kts 262°
2026-05-05 16:53 48.37219 11.89175 2194 ft 150 kts 262°
2026-05-05 16:53 48.37098 11.87591 2011 ft 155 kts 263°
2026-05-05 16:53 48.36980 11.85979 1821 ft 153 kts 262°
2026-05-05 16:53 48.36871 11.84409 1753 ft 146 kts 262°
2026-05-05 16:54 48.36736 11.82849 1587 ft 149 kts 263°
2026-05-05 16:54 48.36626 11.81314 1457 ft 141 kts 263°
2026-05-05 16:54 48.36544 11.80234 1450 ft 105 kts 263°
2026-05-05 16:54 48.36482 11.79400 1455 ft 56 kts 262°
2026-05-05 16:55 48.36413 11.78951 1459 ft 43 kts 242°
2026-05-05 16:55 48.36274 11.78650 1461 ft 17 kts 233°
2026-05-05 16:55 48.36262 11.78626 1461 ft 0 kts 234°
2026-05-05 16:56 48.36245 11.78591 1461 ft 9 kts 234°
2026-05-05 16:56 48.36186 11.78467 1462 ft 19 kts 233°
2026-05-05 16:56 48.36129 11.78255 1462 ft 23 kts 270°
2026-05-05 16:57 48.36100 11.77978 1459 ft 29 kts 262°
2026-05-05 16:57 48.36073 11.77691 1459 ft 16 kts 243°
2026-05-05 16:57 48.35963 11.77673 1459 ft 18 kts 174°
2026-05-05 16:57 48.35861 11.77690 1459 ft 2 kts 173°
2026-05-05 16:58 48.35858 11.77691 1459 ft 0 kts 173°
2026-05-05 16:58 48.35857 11.77691 1459 ft 0 kts 173°
2026-05-05 16:58 48.35809 11.77700 1460 ft 12 kts 173°
2026-05-05 16:58 48.35695 11.77722 1462 ft 21 kts 173°
2026-05-05 16:59 48.35522 11.77752 1466 ft 28 kts 173°
2026-05-05 16:59 48.35361 11.77780 1469 ft 12 kts 171°
2026-05-05 16:59 48.35325 11.77756 1469 ft 6 kts 264°
2026-05-05 16:59 48.35322 11.77702 1469 ft 4 kts 263°
2026-05-05 17:00 48.35321 11.77686 1469 ft 0 kts 263°